CAPE
115 577 863 225 324 477 491 542 854 566 182 184 163 420 453 268 297 390 109 175 303 890 812 858 892 961 1052 1109 1372 1286 1408 1265 1336 1560 1378 1446 1306 1508 1865 1782 1718 1924 1836
111 642 959 422 209 199 228 533 960 1080 940 645 755 488 234 444 380 555 724 699 662 677 766 847 979 785 505 840 912 919 1069 1293 1230 1331 1421 1078 1422 1234 1342 1722 1229 1325 1298
181 517 631 590 138 78 441 1184 860 1056 1051 915 979 884 726 563 566 696 648 643 597 498 520 562 562 636 764 438 216 331 380 496 726 1122 1029 554 767 1366 1565 1527 1587 1675 1677
67 402 332 324 214 264 809 922 768 696 1017 997 961 1004 1078 987 1101 775 610 588 601 545 498 522 457 316 330 559 560 251 78 148 394 601 527 724 713 1066 1309 1019 1047 1320 1480
0 321 697 525 420 673 631 762 1090 858 861 918 976 951 936 802 844 802 615 607 476 389 286 229 244 417 441 297 259 221 117 46 175 543 583 721 466 721 1112 1196 1223 1243 1021
0 280 629 892 776 782 862 766 675 824 954 985 997 798 789 934 970 784 760 572 511 504 531 539 558 382 192 111 261 355 260 157 280 233 296 496 365 216 781 992 1063 1235 1312
158 472 822 943 861 1040 1121 840 658 844 1124 864 563 407 339 297 251 212 170 122 122 176 217 212 301 603 949 1100 609 249 169 187 198 107 202 451 347 239 475 842 1149 1214 1300
68 750 894 847 903 907 918 910 564 426 221 158 86 2 0 0 0 0 43 43 90 179 264 353 442 609 855 1085 1147 1078 781 414 196 186 211 395 364 246 323 942 977 1057 1035
227 207 499 469 709 940 1032 974 362 2 0 0 0 0 62 125 167 187 169 156 190 241 319 446 634 781 917 1084 1227 1264 1349 1283 826 167 356 429 386 239 269 299 898 937 927
36 0 21 91 341 207 193 119 0 0 0 12 54 0 0 4 178 178 62 68 270 245 248 427 735 923 1051 1057 1139 1123 1405 1626 586 345 235 383 466 437 361 324 486 773 762
8 0 14 63 93 0 0 0 0 1 0 23 154 289 384 445 685 937 887 848 1094 907 735 733 889 869 826 731 935 826 553 173 123 199 81 234 413 50 524 495 402 435 892
0 0 54 159 81 0 67 0 0 0 0 61 319 638 773 677 685 1344 1249 1060 1568 983 1073 804 602 709 1019 908 279 71 23 80 3 5 1 0 457 0 88 378 359 317 353
0 10 41 81 197 29 311 0 73 46 107 390 459 792 1228 1317 1356 1201 1179 1096 1260 1398 1244 1294 724 888 690 10 27 0 0 6 0 0 0 0 247 0 0 521 397 344 290
0 0 64 29 6 77 399 30 314 332 311 686 1124 1507 1220 7 196 1030 1006 1188 1043 1170 1415 1206 1132 1061 228 84 206 45 0 2 5 2 161 135 111 10 41 670 352 333 346
10 0 82 38 301 371 227 688 951 541 604 745 486 1537 1128 820 903 1103 1734 1388 1687 1444 1205 929 729 1087 780 571 469 47 54 327 345 93 78 79 49 166 457 349 220 142 243
16 72 66 41 402 653 823 925 1209 755 732 1007 721 1410 1796 1383 765 1332 1006 1050 756 864 1352 1252 1059 1026 1123 1129 884 539 140 193 494 405 171 153 141 448 187 60 107 146 243
6 88 86 41 505 661 1162 789 860 849 413 328 871 819 1915 1871 1626 782 635 274 87 274 966 1690 1484 1387 909 354 415 354 284 929 870 626 357 173 488 251 85 60 279 381 414
0 98 186 265 297 902 893 899 1191 1034 268 368 463 873 1683 1118 1908 608 306 28 14 774 24 900 876 1193 757 565 199 271 57 934 732 226 313 352 206 81 49 217 187 190 422
0 65 108 284 527 678 1024 1291 1498 997 628 609 594 1372 1400 857 1754 909 37 0 252 936 807 714 623 1231 780 974 1019 164 72 352 543 275 192 167 0 50 38 21 67 73 265
0 72 31 329 443 879 1071 1114 1330 1594 851 1215 1007 1429 1171 405 1176 994 814 514 851 1461 993 728 1160 1210 1277 1445 984 758 15 244 206 184 62 0 0 0 13 46 30 63 69
0 107 67 404 690 936 1037 755 754 929 1118 773 1195 666 882 599 226 761 1269 957 1496 1441 1471 1810 1184 1058 1106 850 1091 603 372 371 199 49 0 0 0 0 0 0 3 9 61
13 18 124 245 796 956 867 1046 1238 731 1012 893 802 931 1674 1332 723 843 966 1835 1855 1945 1898 1608 685 837 843 897 771 660 274 190 111 0 0 0 0 0 0 4 1 0 4
0 34 79 332 631 464 625 786 1145 1290 866 1281 624 65 757 731 857 1152 922 1287 1556 1951 2044 1436 1355 1190 816 1117 1067 865 531 221 343 74 0 0 0 0 0 0 0 0 8
35 75 99 139 629 524 356 709 975 635 683 935 1441 681 906 1161 537 723 1182 1299 2060 2421 1943 2258 1901 1649 1246 784 999 1365 783 554 430 231 13 0 0 0 0 0 0 0 0
133 174 233 274 524 723 536 488 639 864 650 1031 1306 763 968 800 1139 1330 1425 1932 2488 1982 2462 2372 1825 1724 1205 1459 1485 1193 710 572 401 286 65 52 0 0 0 0 1 0 0
435 354 431 375 500 818 671 539 592 730 867 529 1314 1778 1627 1371 1397 1278 1293 1723 1721 2395 2217 1646 1322 1314 860 1483 1006 830 565 343 294 279 160 76 0 0 0 1 0 0 9
CIN
-24 -6 0 -12 -1 0 0 0 0 -4 -23 -26 -39 -13 -10 -19 -15 -18 -38 -37 -17 -3 -7 -11 -12 -12 -15 -11 -10 -14 -14 -17 -16 -8 -7 -9 -11 -2 -1 -1 -7 0 0
-75 -7 0 -7 -21 -18 -18 -3 0 0 -1 -5 -4 -12 -29 -19 -19 -7 -2 -5 -6 -9 -11 -8 -6 -17 -34 -25 -32 -29 -25 -15 -14 -6 -2 -17 -12 -10 -5 0 -11 -3 -3
-72 -19 -5 -11 -56 -38 -6 0 -1 0 -1 -1 0 0 -1 -9 -2 0 -5 -8 -9 -9 -13 -20 -22 -24 -28 -46 -73 -71 -64 -46 -32 -18 -6 -30 -30 -9 -7 -3 -2 -1 0
-44 -46 -42 -37 -31 -16 -1 -1 -1 -1 0 0 0 0 0 0 0 -2 -6 -11 -13 -18 -31 -23 -36 -55 -57 -42 -50 -85 -110 -77 -51 -20 -58 -22 -23 -24 -13 -22 -35 -11 0
0 -82 -28 -26 -22 0 0 -1 0 0 0 0 0 0 0 0 0 -1 -6 -6 -13 -31 -46 -43 -50 -31 -39 -57 -69 -81 -92 -107 -60 -30 -32 -35 -49 -42 -16 -22 -17 -8 -20
0 -99 -58 -15 -10 -1 -1 -2 -10 0 0 0 0 0 -4 0 0 0 0 -3 -7 -13 -18 -15 -16 -23 -73 -95 -60 -60 -76 -80 -78 -60 -44 -33 -59 -56 -29 -28 -21 -7 -2
-125 -100 -61 -27 -16 -4 -2 -20 -30 -8 0 -3 -23 -37 -33 -38 -40 -32 -38 -52 -71 -62 -53 -56 -53 -17 -1 -2 -25 -87 -95 -94 -84 -101 -53 -38 -55 -51 -47 -34 -14 -7 -6
-187 -92 -61 -45 -26 -31 -31 -33 -54 -52 -70 -87 -37 -3 0 0 0 0 -97 -99 -82 -72 -63 -48 -41 -33 -17 -10 -15 -21 -49 -76 -114 -91 -74 -53 -59 -65 -105 -31 -22 -12 -18
-178 -164 -117 -99 -59 -40 -44 -40 -77 -4 0 0 0 0 -63 -75 -72 -71 -81 -79 -71 -67 -66 -62 -49 -44 -32 -17 -4 -3 -4 -18 -50 -140 -42 -34 -73 -73 -123 -122 -34 -27 -25
-222 0 -206 -169 -117 -130 -118 -121 0 0 0 -46 -137 0 0 -5 -95 -111 -92 -110 -81 -80 -86 -76 -52 -41 -26 -24 -27 -29 -7 0 -13 -17 -51 -46 -46 -76 -87 -134 -77 -47 -36
-183 0 -211 -185 -164 0 0 0 0 -65 0 -83 -115 -94 -76 -62 -58 -52 -51 -49 -47 -55 -70 -73 -61 -90 -89 -94 -66 -15 -34 -145 -147 -118 -171 -106 -17 -111 -35 -48 -76 -68 -37
0 0 -198 -149 -171 0 -152 0 0 0 0 -136 -66 -63 -54 -58 -62 -35 -42 -50 -35 -67 -72 -57 -61 -100 -88 -74 -14 -78 -234 -156 -105 -69 -52 0 -24 0 -71 -9 -21 -36 -25
0 -142 -210 -152 -133 -179 -84 0 -147 -143 -133 -83 -72 -56 -46 -48 -42 -40 -56 -54 -56 -56 -73 -49 -58 -66 -99 -58 -229 0 0 -273 0 0 0 0 -83 0 0 -51 -33 -61 -32
0 0 -174 -169 -7 -129 -40 -195 -75 -66 -74 -55 -34 -17 -29 -14 -93 -56 -50 -42 -42 -65 -53 -60 -85 -75 -120 -255 -144 -103 0 -190 -30 -22 -225 -182 -141 -125 -127 -45 -80 -71 -66
-252 0 -161 -151 -63 -64 -83 -21 -19 -37 -42 -34 -46 -27 -44 -37 -37 -35 -25 -39 -32 -28 -31 -54 -72 -76 -104 -129 -126 -155 -215 -180 -191 -247 -230 -184 -184 -106 -51 -86 -48 -102 -69
-266 -218 -185 -193 -78 -44 -20 -24 -26 -30 -42 -37 -42 -20 -29 -27 -41 -34 -36 -42 -49 -46 -60 -59 -60 -67 -69 -61 -104 -144 -144 -120 -125 -169 -211 -166 -120 -75 -88 -93 -141 -125 -97
-136 -221 -190 -239 -98 -68 -33 -28 -32 -37 -53 -96 -36 -33 -18 -18 -27 -46 -49 -94 -125 -89 -68 -52 -34 -22 -16 -30 -42 -46 -43 -59 -64 -107 -140 -126 -77 -65 -63 -85 -67 -16 -5
0 -258 -196 -155 -164 -64 -33 -43 -41 -39 -67 -73 -70 -33 -22 -24 -28 -64 -99 -149 -139 -97 -81 -50 -31 -25 -30 -34 -31 -30 -59 -54 -90 -132 -115 -80 -76 -95 -53 0 -14 -2 -8
0 -322 -267 -194 -117 -82 -50 -41 -34 -31 -48 -56 -54 -37 -22 -58 -47 -58 -116 0 -96 -74 -49 -52 -44 -30 -32 -26 -22 -46 -43 -60 -84 -101 -116 -108 -6 -89 -93 -66 -10 -13 0
0 -312 -330 -200 -143 -62 -42 -29 -37 -33 -44 -39 -28 -30 -33 -50 -57 -62 -62 -34 -54 -54 -53 -73 -29 -33 -18 -13 -26 -24 -60 -75 -103 -118 -153 0 0 0 -50 -46 -47 -18 -17
0 -296 -312 -175 -126 -86 -63 -76 -59 -29 -24 -26 -42 -41 -27 -46 -36 -41 -52 -48 -41 -33 -25 -21 -23 -36 -34 -32 -22 -35 -57 -67 -88 -155 0 0 0 0 0 -1 -93 -40 -17
-453 -419 -286 -214 -88 -74 -77 -42 -30 -34 -18 -30 -37 -40 -38 -31 -32 -27 -20 -17 -17 -13 -17 -20 -44 -55 -57 -31 -26 -35 -18 -54 -104 0 0 0 0 0 0 -5 -15 -17 -24
0 -354 -309 -199 -129 -145 -113 -83 -45 -19 -22 -31 -46 -126 -31 -26 -21 -27 -28 -28 -21 -25 -19 -19 -26 -27 -24 -28 -24 -13 -10 -28 -28 -139 0 0 0 0 0 0 0 0 -27
-351 -334 -293 -263 -156 -158 -172 -115 -80 -93 -54 -28 -21 -44 -32 -30 -36 -37 -37 -29 -17 -17 -19 -17 -17 -16 -25 -25 -33 -20 -28 -18 -4 -37 -160 0 0 0 0 0 0 0 0
-302 -284 -258 -242 -184 -157 -166 -160 -132 -89 -89 -42 -29 -29 -39 -31 -35 -39 -28 -14 -10 -12 -11 -10 -17 -17 -26 -13 -8 -15 -25 -21 -18 -8 -89 -127 0 0 0 0 -9 -4 -4
-270 -273 -253 -233 -199 -161 -166 -186 -163 -126 -93 -81 -26 -19 -22 -31 -31 -29 -22 -16 -12 -11 -16 -29 -44 -36 -46 -9 -19 -20 -24 -24 -11 -12 -34 -89 0 0 0 -21 0 0 -49
Wind_Speed
28 28 28 28 28 25 25 25 26 26 30 30 29 27 26 26 28 27 30 29 30 29 27 27 26 25 24 25 25 28 28 28 27 27 27 27 27 28 27 27 26 25 23
28 28 27 28 28 26 27 26 26 27 29 28 27 26 26 26 28 30 30 29 27 27 26 25 23 20 19 20 22 23 23 24 24 25 26 26 25 24 23 25 25 25 24
27 28 27 27 28 28 27 27 26 27 29 28 27 26 26 29 29 28 27 26 25 24 23 22 21 19 19 19 19 18 18 19 20 21 23 23 23 22 23 23 23 23 24
28 27 29 28 28 26 26 25 26 27 28 29 29 28 28 28 26 25 25 24 22 22 21 20 19 18 18 18 18 17 16 16 17 18 17 20 20 21 21 21 21 22 22
29 28 29 28 27 26 25 26 27 28 28 27 27 28 27 26 25 24 23 22 22 20 20 19 18 18 17 17 16 15 15 15 15 15 16 17 18 19 19 20 20 21 22
27 27 27 27 27 27 27 27 27 27 27 26 26 26 25 24 23 22 21 20 20 19 19 18 17 17 16 15 15 15 14 15 14 14 15 15 17 18 18 18 19 20 21
23 27 27 27 27 27 27 27 27 25 24 24 23 23 22 21 21 21 20 19 19 18 18 17 16 16 15 14 14 13 13 13 13 13 11 16 16 16 16 16 17 18 19
24 26 26 27 27 27 26 26 25 24 22 22 21 21 20 20 20 20 19 19 18 17 17 16 15 15 14 14 13 13 12 12 13 13 11 15 14 14 14 14 14 16 17
27 26 26 26 26 26 25 25 23 22 21 21 20 20 19 18 18 18 18 17 17 16 16 15 14 14 13 13 12 11 11 11 11 13 11 11 11 11 12 12 13 13 14
25 26 26 25 25 25 24 23 22 22 21 21 20 20 20 19 18 18 17 17 16 15 15 14 13 12 12 11 11 12 11 8 7 21 21 6 12 10 9 10 10 12 11
25 26 26 26 25 25 23 22 22 22 22 21 21 20 19 18 17 17 16 16 15 15 15 14 13 12 12 12 10 10 15 17 17 18 5 11 6 25 10 10 9 9 8
24 25 25 25 25 25 23 22 23 22 21 19 19 19 18 17 16 17 16 16 15 15 14 13 12 11 12 14 25 26 18 16 14 10 8 9 10 26 24 7 5 3 4
24 26 25 26 24 25 22 22 22 21 19 19 19 19 17 15 16 17 15 15 15 14 13 12 11 9 10 19 21 29 5 5 13 7 9 8 8 7 7 9 8 6 4
25 25 24 25 23 23 22 21 19 19 19 18 18 18 17 16 17 16 14 14 12 12 11 11 10 9 10 13 14 12 11 6 8 6 7 6 5 4 7 8 7 8 3
24 24 24 24 23 24 21 20 19 18 20 18 17 17 16 15 15 14 13 13 12 11 13 11 11 9 9 10 7 10 8 6 6 6 7 7 6 4 5 3 3 5 5
24 24 24 22 22 21 20 19 18 17 18 17 17 17 15 15 15 14 14 11 10 10 11 11 13 12 9 12 8 8 7 6 5 9 10 11 10 10 6 2 2 7 8
23 23 23 21 22 20 20 19 18 16 17 17 17 16 15 16 15 16 13 10 14 13 8 17 7 12 15 17 17 14 15 16 16 14 15 14 12 10 6 7 7 4 2
21 21 22 20 22 21 20 19 18 16 16 16 15 17 15 15 16 16 17 12 12 12 10 17 18 17 17 18 19 18 22 19 19 17 17 16 17 17 14 4 4 2 8
19 20 21 20 21 20 20 18 17 15 15 14 14 16 14 14 14 14 15 12 13 12 10 10 13 17 18 13 12 17 20 17 17 17 17 18 20 22 18 8 2 0 5
18 18 19 17 18 18 18 18 15 14 14 12 11 15 13 12 13 13 12 10 13 12 13 12 15 15 21 11 15 15 17 16 17 17 18 18 19 23 20 12 4 4 3
17 16 17 16 17 16 16 16 16 15 12 12 14 16 14 13 14 13 12 10 11 11 13 15 13 16 16 20 18 19 21 17 17 17 17 19 21 24 24 15 10 7 6
15 15 13 14 12 14 13 13 13 10 11 12 14 11 11 12 13 13 13 13 16 15 13 12 17 18 17 19 20 21 23 18 15 13 14 16 20 24 24 15 12 11 9
14 13 13 12 11 10 10 13 11 8 9 11 10 10 11 12 13 12 12 11 12 12 13 14 17 18 17 18 15 16 19 17 18 14 12 12 20 24 23 17 14 11 8
13 13 13 12 11 11 12 13 8 7 8 10 9 9 10 12 10 10 10 10 12 14 14 14 16 18 18 12 11 9 10 10 12 13 11 16 21 22 19 17 16 16 14
16 15 14 14 13 12 13 14 13 10 10 12 8 8 9 10 10 8 8 10 11 14 14 16 19 17 11 10 11 11 10 12 11 11 11 16 23 22 18 18 18 17 16
16 15 14 16 15 13 15 16 16 13 13 15 6 13 9 9 7 4 7 9 11 12 15 17 16 11 7 9 9 10 10 11 11 10 10 14 17 20 19 19 18 19 19
Wind_Direction
109 103 95 88 79 65 59 57 61 65 80 83 81 74 73 76 83 81 103 119 108 105 98 105 110 112 119 114 116 99 100 100 101 100 97 104 107 107 107 104 98 94 83
104 107 95 96 87 77 73 68 68 72 78 81 76 76 78 81 85 104 110 114 119 115 115 120 129 141 145 137 128 119 113 112 107 108 107 105 103 109 118 104 95 97 97
101 105 101 99 99 95 83 84 73 78 87 88 85 82 85 102 111 112 124 126 125 120 124 135 143 148 144 139 137 134 131 124 122 117 110 108 106 98 87 96 99 100 105
104 104 110 105 105 98 94 83 81 92 94 107 103 101 108 121 128 130 132 135 138 137 141 146 145 146 144 137 135 137 138 141 135 131 132 130 109 98 99 99 104 104 106
105 104 110 108 109 104 96 92 95 100 117 124 126 120 123 127 137 138 137 139 139 140 140 143 143 140 141 137 133 137 145 156 158 147 136 136 113 106 105 104 107 109 107
96 101 107 110 110 107 108 108 109 122 121 127 130 132 134 139 145 146 147 145 142 139 138 142 141 139 136 137 133 134 143 153 166 171 141 135 113 105 108 112 108 115 119
93 108 106 107 112 113 114 120 126 141 145 138 144 147 149 148 147 147 149 147 144 141 139 140 141 139 137 140 136 136 141 154 157 158 172 108 110 105 105 112 118 114 115
97 109 106 111 116 121 128 130 134 143 150 151 153 153 152 151 146 145 144 144 144 144 144 141 137 135 136 130 126 127 130 144 158 172 127 119 109 105 110 105 107 115 118
100 106 112 118 124 130 130 132 141 151 154 156 158 158 155 154 153 152 153 151 151 154 154 153 148 148 143 142 144 143 139 160 160 180 151 132 112 113 113 115 117 122 123
103 108 120 120 128 133 135 135 143 151 157 158 156 150 144 145 148 150 153 156 156 154 156 155 148 149 139 136 125 94 108 137 139 295 303 222 147 120 111 122 121 139 130
110 114 120 125 132 133 129 131 139 144 144 148 151 146 144 148 150 156 157 157 159 157 148 145 144 146 117 124 101 81 36 49 30 5 185 236 71 331 169 144 137 142 137
118 122 123 127 135 134 132 132 137 142 149 155 158 156 153 154 158 155 155 160 164 153 151 145 130 137 136 57 14 13 28 62 69 85 102 146 84 352 248 172 154 149 154
133 128 126 128 130 134 136 135 142 140 144 152 157 161 168 141 152 159 152 149 142 152 137 135 129 135 90 41 20 34 79 78 54 90 89 122 118 69 102 177 154 156 170
132 121 118 130 127 137 134 133 144 140 136 148 159 149 128 138 127 137 146 143 143 130 106 100 104 126 91 61 64 70 125 119 53 79 81 112 85 91 118 128 132 142 180
130 126 119 126 123 132 117 132 103 117 146 163 157 148 133 138 157 175 156 131 112 111 100 91 85 105 105 86 88 75 92 135 110 100 117 108 72 93 122 98 70 12 143
125 121 124 124 129 140 118 137 144 139 122 147 169 155 130 128 122 87 99 148 149 123 95 89 87 95 84 73 83 73 95 122 111 108 100 85 81 76 31 196 147 113 123
125 125 130 127 135 141 139 146 145 153 194 188 190 174 136 123 97 82 91 117 89 83 128 46 107 68 61 46 51 54 70 68 64 75 68 79 61 31 352 163 146 81 84
123 126 131 126 140 143 143 140 136 154 148 152 168 169 151 127 95 73 61 95 101 75 107 54 52 55 46 50 49 54 41 48 48 55 60 60 50 44 68 118 132 72 161
129 127 135 128 131 137 146 148 147 141 146 147 152 153 128 119 87 91 75 110 92 84 113 80 75 48 39 52 56 44 37 42 47 51 47 46 39 38 43 55 114 299 168
129 128 133 126 133 134 141 147 148 143 144 135 160 130 141 132 96 94 105 121 90 106 91 82 58 54 28 53 47 41 36 40 43 40 40 37 34 27 26 26 64 77 41
130 127 135 124 140 133 134 137 151 151 157 89 84 116 124 132 94 91 106 109 92 95 71 57 57 45 48 34 34 27 26 41 38 33 28 28 25 17 15 27 66 66 52
133 135 132 136 118 126 120 134 131 106 87 95 122 122 116 142 129 107 89 73 58 61 58 57 44 38 39 34 25 20 18 24 31 36 28 22 17 16 21 53 65 67 69
140 138 138 142 138 137 135 144 137 80 73 92 110 96 110 111 93 106 93 84 66 63 55 52 41 39 33 27 37 29 25 25 21 30 30 32 20 19 28 50 65 72 89
148 145 144 144 147 150 153 155 133 124 117 127 106 142 135 124 124 110 92 83 65 53 48 45 35 30 29 26 31 40 36 29 24 23 39 26 23 25 38 48 52 40 49
147 150 152 149 149 152 157 165 165 156 150 158 49 69 127 130 142 129 80 69 59 40 44 34 28 30 35 36 38 32 31 34 34 27 3 22 23 31 46 47 49 39 28
144 149 154 156 157 156 163 170 172 164 165 173 74 5 104 131 125 113 88 60 45 47 34 30 32 46 47 49 45 40 34 30 23 26 19 27 33 35 44 46 43 31 24